Showing default

JUPITER 3 (ECHOSTAR 24), 57479

Orbit data source: Space-Track

JUPITER 3 (ECHOSTAR 24), 57479 is an American payload satellite in GEO that was launched on Sat, 29 Jul 2023 UTC via an FALCON HEAVY launch vehicle from the Air Force Eastern Test Range (AFETR). Payload-class satellites include a variety of spacecraft equipped with specific instruments for various scientific and technological missions. These include communications satellites like Starlink; space stations such as the ISS; scientific satellites like the Hubble; Earth observation satellites from companies like Planet Labs, Umbra, and HawkEye 360; GPS; miniature CubeSats for education and research; and military/defense satellites.

Loading next visibility...
Identifier
57479, 2023-108A
Orbit
GEO
Country
Flag of USUS
Related business
Manufacturer
Maxar Space Sol
Mission
Operational Commercial Communications
Bus & Motor
SSL-1300, SPT-100
Mass
9,200 kg wet, ~5,817 kg dry
Launch date (UTC)
2023-07-29 (2 years ago)
Launch vehicle
FALCON HEAVY
Launch site
Air Force Eastern Test Range (AFETR)
Object type
Payload
Rocket body
Debris
Shape & HBR
Box + 2 Pan, 19.4 m
Radar Cross Section
56.895 m², Large (>1 m²)

Expand to show TLE details & history
Last TLE update: 3 days ago

TLE from 3 days ago
0 JUPITER 3 (ECHOSTAR 24)
1 57479U 23108A   25257.28248659 -.00000162  00000-0  00000-0 0  9991
2 57479   0.0177 125.6008 0001344  46.3999 188.0068  1.00272058  7882
Epoch: 2025-09-14T06:46Z
TLE epoch observation values (Epoch: 2025-09-14T06:46:46.841Z)
Latitude
-0.022°
Longitude
-95.19899°
Altitude
35,791.646 km
Speed
3.074 km/s
True Right ascension
23h 59m 59s
True Declination
0° 01' 19"
Sunlit
Object was in full shadow at epoch
Visualization orbit readout
Latitude
Unknown
Longitude
Unknown
Altitude
Unknown
Speed
Unknown
Apparent Right ascension
Unknown
Apparent Declination
Unknown
Sunlit
N/A
Visualization observer readout
Local Sidereal Time
18:47:45
Azimuth
Unknown
Elevation
Unknown
Doppler factor
Unknown
Orbital elements
Apogee altitude
35,793.256 km
Perigee altitude
35,781.922 km
Semi-major axis
42,165.726 km
Eccentricity
0.00013
Inclination
0.0177°
RAAN
125.6008°
Arg. of periapsis
46.3999°
True anomaly
188.00466°
Mean anomaly
188.0068°
Eccentric anomaly
188.00573°
Mean motion
0.25067 °/min
Orbital period
1,436.15 mins
BSTAR
0
Loading maneuver chart data...
Computing Atmospheric mass density...
Loading historical data...
Loading historical data...
Loading historical data...
Loading historical data...
Loading historical data...
Loading historical data...
Loading historical data...
Other satellites on launch #108 in the year 2023 (2023-07-29 UTC)

Documentation

Showing up to 5 results
|